Weather History for Junction, TX

Change the Weather History Date:

Sunday, January 6, 2013

  Actual Average Record
Temperature  
Mean Temperature 38 °F -  
Max Temperature 54 °F 60 °F 75 °F (2008)
Min Temperature 21 °F 31 °F 17 °F (2014)
Degree Days  
Heating Degree Days 28    
Moisture  
Dew Point 22 °F    
Average Humidity 59    
Maximum Humidity 92    
Minimum Humidity 20    
Precipitation  
Precipitation 0.00 in - - ()
Sea Level Pressure  
Sea Level Pressure 30.31 in    
Wind  
Wind Speed 2 mph (NNE)    
Max Wind Speed 8 mph    
Max Gust Speed -    
Visibility 8 miles    
Events      
Averages and records for this station are not official NWS values.
T = Trace of Precipitation, MM = Missing Value Source: NWS Daily Summary

Daily Weather History Graph

Daily Weather History Graph

Search for Another Location

Airport:

Trip Planner

Search our weather history database for the weather conditions in past years. The results will help you decide how hot, cold, wet, or windy it might be!

Date:

Astronomy

Jan. 06, 2013 Rise Set
Actual Time 7:37 AM CST 5:53 PM CST
Civil Twilight 7:10 AM CST 6:19 PM CST
Nautical Twilight 6:40 AM CST 6:49 PM CST
Astronomical Twilight 6:11 AM CST 7:18 PM CST
Moon 2:02 AM CST (1/6) 1:14 PM CST (1/6)
Length of Visible Light 11h 08m
Length of Day
10h 16m
Waning Crescent, 33% of the Moon is Illuminated
Jan 6
Waning Crescent
Jan 11
New
Jan 18
First Quarter
Jan 26
Full
Feb 3
Last Quarter

Hourly Weather History & Observations

Time (CST) Temp. Windchill Dew Point Humidity Pressure Visibility Wind Dir Wind Speed Gust Speed Precip Events Conditions
12:51 AM 30.0 °F 26.5 °F 25.0 °F 82% 30.27 in 8.0 mi WSW 3.5 mph - N/A   Clear
1:51 AM 27.0 °F 23.0 °F 23.0 °F 85% 30.26 in 9.0 mi WSW 3.5 mph - N/A   Clear
2:51 AM 27.0 °F - 23.0 °F 85% 30.27 in 8.0 mi Calm Calm - N/A   Clear
3:51 AM 27.0 °F - 23.0 °F 85% 30.28 in 9.0 mi Calm Calm - N/A   Clear
4:51 AM 24.1 °F - 21.0 °F 88% 30.29 in 8.0 mi Calm Calm - N/A   Clear
5:51 AM 21.9 °F - 19.9 °F 92% 30.30 in 8.0 mi Calm Calm - N/A   Clear
6:51 AM 23.0 °F - 19.0 °F 85% 30.34 in 8.0 mi Calm Calm - N/A   Clear
7:51 AM 21.0 °F - 19.0 °F 92% 30.38 in 6.0 mi Calm Calm - N/A   Clear
8:51 AM 27.0 °F - 23.0 °F 85% 30.39 in 6.0 mi Calm Calm - N/A   Clear
9:51 AM 37.0 °F - 28.0 °F 70% 30.40 in 7.0 mi Calm Calm - N/A   Clear
10:51 AM 44.1 °F - 28.0 °F 53% 30.40 in 8.0 mi Calm Calm - N/A   Clear
11:51 AM 50.0 °F - 26.1 °F 39% 30.37 in 9.0 mi Calm Calm - N/A   Clear
12:51 PM 55.9 °F - 19.9 °F 25% 30.32 in 9.0 mi ENE 8.1 mph - N/A   Clear
1:51 PM 57.9 °F - 19.9 °F 23% 30.28 in 9.0 mi NE 8.1 mph - N/A   Clear
2:51 PM 57.9 °F - 19.0 °F 22% 30.26 in 9.0 mi Variable 3.5 mph - N/A   Clear
3:51 PM 59.0 °F - 18.0 °F 20% 30.26 in 9.0 mi East 8.1 mph - N/A   Clear
4:51 PM 57.9 °F - 19.9 °F 23% 30.26 in 8.0 mi NE 8.1 mph - N/A   Clear
5:51 PM 55.0 °F - 21.9 °F 28% 30.27 in 8.0 mi NE 4.6 mph - N/A   Clear
6:51 PM 45.0 °F - 21.9 °F 40% 30.29 in 10.0 mi Calm Calm - N/A   Clear
7:51 PM 42.1 °F - 23.0 °F 47% 30.31 in 9.0 mi Calm Calm - N/A   Clear
8:51 PM 35.1 °F - 21.9 °F 59% 30.32 in 10.0 mi Calm Calm - N/A   Clear
9:51 PM 32.0 °F - 21.0 °F 64% 30.32 in 10.0 mi Calm Calm - N/A   Clear
10:51 PM 30.0 °F 26.5 °F 21.0 °F 69% 30.31 in 10.0 mi NW 3.5 mph - N/A   Clear
11:51 PM 27.0 °F 23.0 °F 19.0 °F 72% 30.29 in 9.0 mi West 3.5 mph - N/A   Clear